Regional Weather Roundup
Issued by NWS

Home | Current Version | Previous Version | Graphics & Text | Print | Product List | Glossary On
Versions: 1 2 3 4 5 6 7 8 9 10 11 12 13 14 15 16 17 18 19 20 21 22 23 24 25 26 27 28 29 30 31 32 33 34 35 36 37 38 39 40 41 42 43 44 45 46 47 48 49 50
000
ASUS45 KCYS 230910
RWRWY

WYOMING REGIONAL WEATHER ROUNDUP
NATIONAL WEATHER SERVICE CHEYENNE WY
300 AM MDT TUE MAY 23 2017

NOTE:  "FAIR" INDICATES FEW OR NO CLOUDS BELOW 12,000 FEET
WITH NO SIGNIFICANT WEATHER AND/OR OBSTRUCTIONS TO VISIBILITY.

WYZ001-231000-
YELLOWSTONE NATIONAL PARK

CITY           SKY/WX    TMP DP  RH WIND       PRES   REMARKS
LK YELLOWSTONE   N/A     27  26  96 CALM      30.37S
W YELLOWSTONE  NOT AVBL

$$
WYZ002>013-054>058-071-098>099-231000-
NORTHERN WYOMING

CITY           SKY/WX    TMP DP  RH WIND       PRES   REMARKS
JACKSON        FAIR      37  32  81 N3        30.32S
CODY           FAIR      45  35  68 SW8       30.26F
GREYBULL       FAIR      40  35  83 SE6       30.22
WORLAND        MOCLDY    40  39  97 CALM      30.23S
SHERIDAN       CLOUDY    41  37  86 CALM      30.22F
BUFFALO        FAIR      41  34  76 W8        30.24F
GILLETTE       FAIR      41  39  93 W12       30.19F
HULETT         FAIR      36  34  93 S6        30.19S WCI  31
NEWCASTLE      FAIR      36  34  93 CALM      30.19S

$$
WYZ014>020-022>026-101>103-231000-
CENTRAL WYOMING

CITY           SKY/WX    TMP DP  RH WIND       PRES   REMARKS
BIG PINEY      FAIR      34  32  92 S7        30.34F WCI  28
PINEDALE       FAIR      32  32 100 SE5       30.36S WCI  27
DUBOIS         NOT AVBL
LANDER         FAIR      40  32  73 W6        30.27F
RIVERTON       FAIR      37  34  89 W8        30.27F WCI  31
CASPER         FAIR      38  36  92 SW12      30.24F WCI  30
DOUGLAS        CLOUDY    41  37  86 NW9       30.24S

$$
WYZ021-027>030-104>119-231000-
SOUTHERN WYOMING

CITY           SKY/WX    TMP DP  RH WIND       PRES   REMARKS
EVANSTON       MOCLDY    44  36  73 NE10      30.32F
ROCK SPRINGS   MOCLDY    40  33  76 CALM      30.33F
DIXON            N/A     30  29  94 NE3       30.36F
RAWLINS        FAIR      33  30  88 S3        30.31
SARATOGA       FAIR      32  32 100 CALM      30.32
LARAMIE        FAIR      30  27  88 NW6       30.26F WCI  24
CHEYENNE       CLOUDY    39  33  79 NW16G23   30.23F WCI  30
TORRINGTON     FAIR      41  38  89 NW8       30.18F

$$



USA.gov is the U.S. government's official web portal to all federal, state and local government web resources and services.